User: anonymous   Login
Location: Unspecified
(0.0000°N, 0.0000°E)
Time: 03:33:09
(UTC+00:00)
Language:

USA 264 DEB - Orbit

View from above orbital plane
View from above orbital plane
View from above satellite
View from above satellite

Ground track
Ground track

The orbit data is extracted from the following two-line orbital elements,

1 40981U 15058R   17176.93576695 0.00000000  00000-0  00000-0 0    06
2 40981  63.4387 138.7247 0073000 176.1164 183.8835 13.40736005    08
Epoch (UTC): 25 June 2017 22:27:30
Eccentricity: 0.0073000
inclination: 63.4387°
perigee height: 1052 km
apogee height: 1161 km
right ascension of ascending node: 138.7247°
argument of perigee: 176.1164°
revolutions per day: 13.40736005
mean anomaly at epoch: 183.8835°
orbit number at epoch: 0

The dashed part of the orbit path shows where the satellite is in the earth's shadow,  

DLR